Ana Sayfa
METAR-TAF:

METAR-TAF

Havaalanları :

Winston Field

Snyder, Teksas, Amerika Birleşik Devletleri

Enlem: 32-41-36N, Boylam: 100-57-01W, yükseklik: 741 m

Güncel hava durumu gözlemi

Rapor saat 18:35 UTC de 22 dakika önce yapıldı.
Rüzgar doğudan 4 kt
Sıcaklık 32°C
Nem 41%
Basınç 1016 hPa
Görüş mesafesi: 16.1 km
Açık gökyüzü

METAR: KSNK 051835Z AUTO 08004KT 10SM CLR 32/17 A3000 RMK AO2 T03210167

Saat: 13:57 (18:57 UTC)


TAF: eksik

4.000'den fazla havaalanı için hava durumu gözlemleri ve tahminleri (METAR ve TAF raporları).

Kullanılabilir istasyonlar harita üzerinde sarı ve kırmızı noktalarla gösterilir.

İstasyonun adını görmek için fareyi noktanın üzerinde gezdirin.

Sonrasında hava gözlem ve tahminlerini görmek için tıklayın.

Haritayı değiştirmek için: yaklaştırmak için siyah artı işaretli yeşil düğmeye ve uzaklaştırmak için de eksi işaretli düğmeye hızla tıklayın; bitişik haritalar için yeşil okları kullanın.


METAR-TAF: